GFSMA_850_rhum_171.txt.gz
RH
20 24 30 34 36 48 62 76 89 94 94 92 93 94 94 96 97 95 88 86 85 79 61 50 44 48 70 74 64 50 57 60 46 46 47 47 48 50 52 55 59 69 76
27 27 30 28 30 34 36 49 68 81 90 89 88 95 95 95 96 96 96 92 95 87 78 61 51 46 55 79 83 66 46 77 52 43 44 46 47 47 48 51 58 69 77
42 38 38 36 34 38 42 40 42 54 75 85 89 91 91 95 92 94 94 95 94 97 84 78 64 54 47 57 79 87 75 48 54 42 42 44 47 48 47 47 51 68 79
49 53 52 47 46 54 51 49 48 46 45 56 72 87 97 98 93 94 96 95 97 100 98 91 80 70 55 46 49 79 85 81 63 47 44 46 47 48 47 46 46 54 77
39 55 63 66 72 73 68 62 57 52 52 50 52 62 73 85 87 89 89 90 95 97 98 98 96 81 72 58 47 46 60 86 86 78 63 42 44 47 48 48 47 47 60
29 49 61 72 84 82 78 75 71 67 60 59 55 51 53 64 73 82 86 83 82 80 95 95 100 98 85 77 64 52 50 57 76 86 81 77 66 53 49 51 50 48 48
23 35 45 83 95 93 86 80 76 73 68 65 63 63 64 53 52 66 79 87 84 67 77 84 88 99 97 91 83 72 58 55 65 65 84 81 84 80 81 76 68 63 61
14 20 41 61 91 96 95 90 85 81 77 68 65 65 64 64 60 58 50 41 45 73 80 75 84 95 98 82 80 86 85 67 60 47 70 79 81 79 83 84 86 86 79
74 79 84 89 93 96 99 98 92 88 86 81 73 68 66 62 58 52 45 50 55 61 66 79 71 74 74 66 62 87 86 85 77 70 59 71 76 79 77 78 80 84 80
74 67 70 71 93 99 97 97 94 89 88 86 81 75 71 72 74 72 58 49 51 53 68 78 86 89 88 86 97 79 82 90 81 81 56 73 78 74 74 74 75 70 69
72 68 71 73 96 98 99 99 98 95 92 87 81 81 78 75 76 76 78 74 68 58 52 69 66 64 72 92 88 99 99 91 88 85 86 71 84 81 76 74 73 71 68
69 68 68 72 85 99 98 98 99 98 96 93 89 84 82 79 76 73 73 72 72 73 73 66 60 67 73 71 64 94 99 97 96 99 99 93 82 82 89 78 81 77 76
66 69 72 80 88 86 96 98 99 96 93 93 92 89 85 83 81 82 82 83 83 79 74 63 67 74 78 85 70 65 94 99 100 100 100 100 99 87 98 89 94 98 97
71 82 90 90 97 99 97 99 97 99 97 87 89 91 89 86 86 83 87 89 90 87 82 77 64 63 66 70 97 93 66 66 80 96 97 98 99 93 99 84 86 89 98
72 66 69 85 82 84 83 98 99 99 96 94 93 92 90 85 86 85 83 86 90 93 86 79 75 69 71 74 80 81 99 81 70 66 66 97 100 90 90 76 77 88 88
54 71 72 79 74 75 74 73 73 89 96 95 91 91 91 90 87 85 86 84 87 95 98 87 84 72 58 61 63 69 79 84 80 79 68 76 82 80 81 72 77 88 92
44 68 98 100 100 100 99 95 98 96 96 98 99 97 96 95 92 93 93 89 87 89 98 82 78 66 79 78 76 68 65 88 91 97 87 69 66 63 78 81 89 90 87
42 53 77 95 95 99 100 100 100 100 98 100 100 99 93 97 97 97 99 99 94 96 99 96 85 81 81 82 81 88 73 67 77 99 97 77 73 75 74 79 76 75 83
23 31 46 73 81 84 88 92 99 99 100 100 99 95 88 88 77 81 99 99 99 97 93 93 85 80 70 70 78 79 78 77 66 76 95 92 77 70 70 72 73 80 77
13 16 19 30 48 63 77 87 86 86 85 85 90 99 96 94 81 81 89 87 97 98 98 99 92 78 83 82 88 89 83 81 75 79 80 89 80 74 72 72 71 72 70
11 12 15 17 19 21 26 25 26 26 35 43 65 86 96 96 93 87 89 95 89 80 94 98 100 92 80 80 82 84 92 89 78 76 74 73 76 69 67 68 75 78 82
13 14 14 16 18 21 21 21 21 20 22 45 83 99 99 97 96 98 97 96 99 98 77 92 99 99 91 86 82 81 76 75 72 62 75 65 72 70 66 65 61 64 76
10 12 14 16 17 19 20 22 22 23 36 88 99 99 99 100 100 100 91 90 99 93 94 90 86 99 99 92 83 84 87 84 78 76 89 86 78 76 76 85 80 85 82
14 13 12 14 15 17 18 21 23 25 63 99 99 99 100 99 99 99 97 91 99 100 94 98 99 98 98 99 98 98 98 99 97 96 97 98 91 90 96 96 87 86 88
18 15 14 15 16 16 19 20 21 22 46 94 100 100 100 100 99 99 99 95 93 99 99 100 99 98 100 99 99 99 98 98 98 100 100 100 90 84 97 99 98 92 98
32 21 16 15 15 16 18 19 22 24 27 79 98 99 99 99 99 99 94 99 100 100 100 98 98 99 94 94 98 99 98 98 99 100 97 99 98 100 100 99 99 98 100

GFSMA_850_rhum_174.txt.gz
RH
26 23 24 23 26 30 39 56 70 78 80 79 86 93 98 99 97 88 86 89 88 85 84 81 66 50 44 51 66 57 49 44 42 43 43 43 44 45 46 48 52 57 63
42 38 33 29 29 30 29 29 30 52 70 82 84 79 84 87 94 100 94 88 89 90 87 86 81 67 52 46 47 80 68 50 44 43 43 40 43 44 46 45 46 52 60
37 43 46 47 41 38 37 37 38 37 36 66 79 87 82 80 80 87 94 100 97 95 92 87 85 86 74 58 71 74 89 78 59 46 44 40 39 42 45 45 45 45 55
26 34 41 48 54 59 58 52 46 45 46 42 38 45 65 83 81 79 83 88 93 95 95 92 91 94 90 79 60 69 77 83 85 74 51 44 39 38 42 44 44 45 46
12 20 31 37 48 62 69 71 69 63 57 54 49 45 46 63 76 88 76 82 89 90 97 92 93 91 98 89 84 66 64 68 79 83 81 66 54 41 38 41 44 44 44
10 12 12 16 26 48 68 78 78 77 75 70 63 62 60 50 49 56 74 81 75 78 85 88 93 94 94 93 92 88 74 65 62 66 82 87 76 64 51 42 42 46 46
7 7 10 16 23 58 87 95 88 83 78 76 75 71 65 60 53 50 59 65 67 71 64 64 62 65 78 86 94 96 93 74 70 65 57 65 82 79 59 55 56 48 50
23 55 60 60 61 55 59 84 96 92 88 83 81 76 70 68 66 65 61 52 46 43 42 53 65 63 60 62 81 91 89 92 87 79 71 60 60 71 81 59 59 69 58
56 57 46 47 51 69 82 80 93 88 88 85 80 84 79 69 71 70 66 66 64 62 62 59 55 64 64 59 62 64 66 69 77 95 91 85 71 67 75 78 63 67 74
65 52 53 54 54 59 81 92 89 88 91 88 82 79 79 77 79 77 70 66 60 61 56 57 60 68 89 88 82 78 80 83 83 84 97 99 94 79 63 66 71 72 70
71 60 54 48 54 71 97 95 91 90 94 90 89 85 79 76 74 74 77 72 72 66 61 60 62 60 64 72 76 73 73 80 86 87 98 91 100 94 93 70 70 67 76
72 66 62 59 64 69 83 97 97 98 99 96 89 85 86 86 82 83 83 80 78 67 63 58 55 57 63 67 74 80 86 78 69 70 87 92 97 100 96 83 65 65 73
78 72 74 74 81 89 97 99 98 97 98 96 86 81 81 82 86 88 90 90 90 76 70 60 53 47 42 50 61 66 70 78 88 74 70 78 98 98 96 99 93 85 74
50 72 77 81 92 93 94 95 99 98 96 97 97 90 83 81 86 83 84 87 91 92 81 65 59 63 65 68 64 61 72 82 80 90 85 79 92 98 100 98 97 95 94
35 46 80 93 93 91 84 91 94 99 99 99 96 90 87 85 84 84 86 86 88 96 94 79 82 54 58 55 47 45 49 51 54 64 86 94 85 81 98 100 98 98 100
16 27 42 84 97 99 96 98 95 79 85 84 90 92 96 92 92 90 87 86 89 92 98 97 72 67 62 63 60 59 61 62 73 69 82 80 82 90 77 92 100 97 100
14 17 23 37 60 83 93 99 99 99 99 98 98 96 91 94 92 93 91 86 92 91 98 92 96 78 77 72 71 71 74 80 81 74 72 86 97 99 91 99 97 99 86
10 14 18 23 30 60 72 82 90 94 98 96 98 99 99 98 98 94 94 94 96 100 100 98 86 82 78 77 73 81 76 68 71 74 71 74 74 94 95 85 78 75 86
8 10 13 17 26 35 46 55 69 82 97 98 100 100 99 100 99 100 99 98 90 99 98 100 97 90 71 70 73 79 82 83 72 76 78 73 74 82 100 86 81 71 81
9 8 8 10 14 17 19 23 28 37 31 29 35 66 70 99 100 100 100 99 100 99 96 99 100 99 84 68 79 82 78 82 81 79 77 84 86 75 100 90 84 83 78
12 11 11 12 15 18 19 17 20 22 20 20 23 46 97 100 100 99 99 100 100 100 98 98 100 100 95 96 90 82 86 77 76 83 79 79 80 90 87 89 86 79 70
18 14 12 12 13 15 17 18 20 21 21 25 32 87 98 100 98 99 99 98 99 98 96 99 96 99 99 100 100 98 87 80 84 76 82 83 83 88 86 82 83 84 77
32 21 15 13 12 14 16 17 20 21 25 27 81 93 98 99 100 100 98 99 99 99 99 98 95 97 97 98 98 99 100 100 97 94 89 81 87 86 87 86 84 80 77
46 36 26 17 14 14 16 17 19 19 23 25 67 98 100 99 100 100 99 97 100 100 99 98 99 98 99 99 97 98 98 99 99 99 99 98 86 90 90 92 94 88 94
57 52 42 30 21 16 16 17 18 20 20 22 27 77 99 99 99 100 100 98 96 100 99 98 99 99 98 97 96 98 97 100 95 89 87 88 90 95 100 92 81 80 85
66 62 55 45 34 26 19 18 18 18 19 21 26 36 86 99 100 99 94 87 94 96 99 99 99 99 100 100 98 98 98 96 96 98 98 100 96 92 99 95 100 98 90

GFSMA_850_rhum_180.txt.gz
RH
35 35 34 32 30 26 24 22 28 39 49 56 62 72 81 84 85 83 83 88 89 89 96 89 86 81 85 89 88 78 46 38 49 52 52 48 48 52 52 50 51 52 53
25 25 25 26 27 30 35 35 29 25 24 28 37 62 68 73 77 82 83 83 85 90 91 95 95 94 90 92 90 88 78 52 37 44 46 47 48 46 48 48 49 48 49
12 12 12 12 14 16 19 24 32 38 37 33 30 29 34 45 66 75 77 79 81 84 86 88 99 99 95 94 94 87 90 87 63 49 44 53 49 47 46 48 47 48 46
11 11 8 8 10 12 15 21 26 32 39 44 44 40 37 35 34 42 56 68 74 73 66 67 72 90 99 99 98 98 93 95 95 85 67 59 66 63 51 48 48 47 46
8 7 8 9 7 7 8 12 15 26 30 36 45 50 52 53 49 45 41 42 53 66 77 85 77 69 81 94 99 99 98 99 95 97 91 73 66 75 80 74 55 52 51
10 8 7 8 10 18 35 41 38 38 44 53 64 66 63 55 52 52 52 51 46 48 55 66 74 80 80 77 79 86 94 95 99 100 100 99 89 76 83 82 84 78 62
8 7 13 31 52 50 42 44 47 48 51 72 83 74 63 55 52 55 63 62 64 60 52 51 55 63 68 64 66 56 58 63 81 85 99 100 100 91 85 81 75 79 87
9 17 33 52 49 45 46 49 56 61 66 81 82 86 82 68 75 77 75 74 72 71 70 68 67 65 60 58 55 49 44 52 61 67 72 73 85 98 98 99 85 77 73
10 26 48 56 51 49 46 48 55 70 79 76 86 87 86 82 76 71 63 66 69 70 67 64 62 62 64 68 68 69 69 67 69 70 70 79 80 99 98 99 98 95 87
10 19 46 58 54 51 51 57 65 74 88 85 84 78 86 96 98 94 84 74 70 69 67 64 66 66 65 63 65 66 70 75 88 87 85 89 85 87 86 91 98 94 99
9 14 33 62 59 54 57 61 73 86 89 90 89 93 98 92 90 95 96 82 60 55 54 57 54 49 47 47 49 53 54 64 72 73 71 72 78 94 97 96 84 93 99
9 11 18 26 40 56 67 75 80 86 85 94 97 98 98 100 98 100 100 86 81 63 63 54 45 46 46 41 38 40 42 40 44 53 64 64 66 65 63 60 76 85 82
10 12 15 21 24 50 72 83 92 93 95 98 98 98 99 99 100 100 99 92 86 69 62 54 54 55 52 52 51 53 50 44 41 39 37 38 45 54 62 64 64 68 69
10 11 16 21 30 35 89 99 99 99 98 97 98 99 99 98 100 98 98 97 93 93 91 80 64 62 61 63 61 56 50 50 52 45 40 37 38 37 33 33 46 59 63
14 12 15 21 30 49 62 100 98 96 98 97 96 98 99 100 99 94 95 95 93 99 95 89 85 77 76 71 60 55 58 58 58 57 55 48 44 42 40 39 40 40 39
20 14 13 16 23 30 42 73 92 91 95 98 96 96 98 99 100 100 90 90 91 92 97 86 82 83 85 83 74 62 67 69 67 67 71 73 67 59 59 57 54 55 53
29 18 14 13 14 17 24 28 31 49 75 78 88 91 77 88 98 98 95 92 91 92 93 88 82 78 85 77 72 76 72 70 65 67 69 74 72 65 58 60 62 64 62
38 29 20 15 14 14 18 23 26 29 30 33 33 33 32 28 37 62 75 96 99 99 100 98 95 95 94 97 99 93 72 72 80 77 75 72 73 73 74 66 74 82 79
43 40 32 23 16 14 14 17 19 21 23 27 31 33 26 21 22 32 52 64 98 99 99 100 99 97 97 97 96 97 99 94 76 72 73 73 75 81 86 81 80 78 84
47 47 44 37 26 18 16 16 18 20 20 22 23 22 22 28 33 57 98 97 98 98 96 98 99 97 96 92 98 96 94 95 98 70 76 90 86 83 82 81 83 84 98
50 54 52 49 40 29 21 17 16 15 16 17 18 19 20 22 31 96 97 98 99 100 99 100 99 99 96 94 93 93 94 93 97 97 97 98 97 96 87 84 92 88 97
42 48 55 57 53 44 34 24 19 16 14 15 15 16 19 23 38 99 98 100 95 100 99 99 98 100 96 93 92 99 96 93 96 95 90 90 96 94 95 96 94 93 99
44 42 45 58 59 56 50 41 30 23 19 16 16 16 18 23 30 47 66 90 99 100 100 100 99 98 99 100 99 99 98 97 93 90 88 85 86 86 90 88 92 100 97
55 48 43 51 60 61 61 54 45 36 27 21 18 17 17 18 23 35 52 73 66 90 97 95 100 100 99 98 99 99 98 97 94 88 85 96 94 84 86 89 83 85 99
50 53 51 46 52 56 67 65 58 50 41 32 23 20 19 19 21 27 58 51 32 37 38 44 72 99 100 100 100 99 99 100 98 99 99 98 83 81 84 92 92 82 83
41 44 46 50 49 49 60 69 68 61 53 46 34 28 26 22 22 22 28 30 27 29 32 27 27 46 90 99 100 99 100 99 100 100 98 100 98 97 90 84 90 92 92

GFSMA_850_rhum_186.txt.gz
RH
29 28 28 30 31 32 34 35 35 34 30 25 22 24 31 39 45 52 58 67 83 85 81 81 86 91 90 93 91 87 87 89 91 91 81 58 61 68 58 67 90 97 96
22 20 18 17 18 19 18 18 19 21 24 30 35 34 28 26 31 40 48 52 55 65 74 78 78 80 84 89 94 92 89 92 92 93 93 90 64 54 59 58 55 96 98
25 24 18 15 15 13 12 12 12 12 14 19 22 26 30 36 36 32 31 32 45 57 62 62 61 71 79 84 87 98 100 100 98 96 95 94 95 81 55 49 55 63 88
18 12 13 13 13 12 10 9 8 7 8 10 12 17 21 27 33 39 44 41 35 34 39 51 62 60 59 70 75 82 88 91 96 99 96 97 100 100 92 84 63 63 67
15 20 17 14 10 8 11 16 19 23 28 36 36 32 31 32 33 35 36 44 52 51 45 40 39 47 60 63 65 65 65 70 90 97 99 95 95 98 98 98 94 77 79
14 15 13 13 18 22 30 37 40 40 38 35 32 31 35 42 46 53 50 46 51 63 62 59 56 50 44 43 56 65 66 71 72 77 88 90 85 95 95 90 94 98 85
15 11 16 23 33 48 49 45 44 39 40 43 42 42 51 62 65 77 74 67 76 75 73 72 71 69 66 59 51 51 60 62 58 60 64 65 74 82 80 83 98 89 70
19 11 16 29 31 60 61 52 50 48 49 55 59 73 72 72 77 72 74 75 75 75 74 73 72 71 70 68 68 66 62 58 53 48 42 39 39 46 40 43 68 77 94
24 14 14 20 30 58 68 63 60 64 57 75 81 78 86 90 81 79 70 71 74 70 67 69 70 70 70 68 68 68 69 70 69 69 71 66 60 56 47 42 65 48 57
30 19 13 15 24 34 44 72 70 75 77 81 89 93 93 95 92 86 73 72 68 68 64 60 59 57 58 57 58 61 63 63 64 65 67 71 80 86 91 84 80 81 66
34 25 14 12 18 24 29 32 74 88 92 91 91 90 90 96 97 100 96 99 85 65 67 59 53 52 50 50 50 50 49 48 49 51 54 56 60 68 76 87 92 83 83
38 30 19 13 15 17 21 28 50 91 91 96 96 92 94 97 97 98 97 99 99 99 90 70 69 66 65 63 64 61 57 52 48 45 44 44 44 45 48 56 65 70 72
41 33 26 15 14 15 20 31 36 70 99 99 99 98 97 98 96 95 94 92 96 96 98 89 79 76 72 77 73 72 68 65 61 53 48 44 41 39 36 34 33 34 37
41 36 32 22 15 14 17 24 34 52 94 100 99 96 97 97 98 98 99 97 98 96 95 90 83 80 80 78 76 79 75 73 70 61 55 53 53 55 56 55 51 43 34
38 37 35 30 21 15 14 15 21 30 48 54 74 98 100 100 97 98 99 98 97 100 97 93 97 96 88 84 85 86 71 69 76 75 69 65 63 62 62 62 64 65 64
37 39 37 34 31 24 18 15 16 18 21 24 28 58 72 90 93 88 87 85 90 96 99 97 100 100 99 78 73 86 87 72 68 71 74 75 69 66 63 64 65 66 65
41 41 42 40 38 35 29 21 16 14 14 16 18 23 27 34 37 35 39 39 42 74 94 38 62 69 54 62 84 98 99 87 80 79 79 76 72 67 65 66 66 67 69
51 47 46 47 47 45 41 34 27 20 17 15 16 19 20 25 25 28 24 22 27 35 54 44 51 66 88 96 95 92 95 89 92 87 87 83 70 62 70 72 69 71 73
48 48 45 43 45 48 48 46 41 32 24 20 18 18 18 20 19 21 22 25 40 65 97 98 98 99 96 94 98 97 97 98 99 92 87 83 76 72 78 84 78 74 74
43 44 42 39 40 42 46 52 52 46 38 30 23 21 20 19 19 19 21 27 40 73 96 97 92 89 99 88 92 93 93 89 91 88 86 90 82 79 74 74 67 71 76
49 52 54 53 50 46 43 49 55 55 50 44 37 28 23 20 18 19 20 25 49 93 97 96 98 98 100 98 99 97 98 98 95 94 94 90 84 79 69 72 75 74 77
42 48 51 58 60 58 52 48 54 58 59 56 52 45 36 28 23 21 22 28 86 98 98 98 98 98 98 98 98 100 98 100 100 98 97 90 91 83 67 71 75 76 79
34 37 39 41 42 47 51 54 52 52 58 62 62 58 52 42 32 25 24 26 32 45 59 87 97 84 99 100 100 98 99 99 99 98 98 91 86 83 80 80 79 81 80
16 18 22 27 30 37 43 48 53 53 49 51 60 65 62 56 47 34 27 27 27 29 42 44 43 51 67 43 40 62 98 88 85 93 100 100 93 83 83 82 87 84 80
12 13 14 15 16 17 30 40 46 50 54 55 56 58 63 64 59 50 36 31 34 35 41 45 39 33 34 36 36 41 51 74 70 79 64 98 96 98 95 86 88 82 83
10 10 9 10 12 12 18 23 38 54 48 48 51 53 54 61 66 64 53 39 41 46 48 48 46 43 39 41 40 40 43 51 80 84 95 91 100 100 98 93 98 100 100

GFSMA_850_rhum_189.txt.gz
RH
31 27 24 23 20 20 20 22 26 29 32 34 33 28 20 19 24 31 38 44 52 67 81 83 81 87 90 90 88 88 91 89 86 88 90 89 70 60 59 70 95 100 98
30 27 26 25 21 17 18 15 13 13 15 17 20 25 30 33 30 25 25 28 33 39 45 54 71 80 80 80 86 89 89 94 91 90 92 93 94 89 70 56 59 76 94
23 18 15 15 18 17 14 12 11 10 10 10 10 13 17 21 24 30 34 34 31 29 31 43 51 56 57 62 71 78 83 92 95 96 96 97 97 96 98 86 62 57 58
20 15 13 13 15 16 13 11 11 12 12 11 9 10 14 23 25 25 27 33 39 41 38 34 36 46 54 57 54 55 71 78 90 96 92 93 99 99 100 99 98 81 67
22 16 12 9 9 13 22 32 27 29 31 34 31 33 32 30 33 35 38 37 36 41 49 51 47 40 37 38 47 57 57 58 61 61 65 87 93 99 97 96 98 95 94
27 20 13 9 10 19 31 51 47 45 42 37 36 36 36 39 46 55 56 51 49 53 59 60 60 59 54 49 44 42 44 54 57 55 58 65 74 89 81 85 99 98 98
32 24 14 11 14 16 44 56 52 49 46 45 43 47 55 59 66 72 72 70 73 76 74 73 71 70 68 65 62 58 53 47 46 54 56 60 62 64 69 83 85 85 81
36 28 17 12 12 15 48 66 58 53 53 55 57 62 67 72 75 74 75 76 76 76 75 74 73 73 72 71 69 68 67 64 59 54 50 47 46 45 45 46 50 65 56
37 31 22 14 11 14 27 41 64 61 60 72 73 77 83 87 78 79 77 77 78 76 71 70 68 66 66 67 68 68 68 68 68 68 68 66 62 57 57 69 72 66 64
42 34 26 17 12 15 20 25 36 66 69 79 89 92 92 95 96 88 79 84 80 74 70 64 63 62 60 57 55 54 55 58 62 64 64 65 67 68 72 89 90 81 78
44 37 28 21 13 15 20 25 31 49 72 82 86 88 90 93 98 93 96 90 85 79 62 57 52 51 55 58 55 54 51 50 49 49 50 54 57 60 65 75 86 99 90
44 42 31 27 17 14 15 21 31 36 86 92 91 97 95 93 95 95 96 97 98 90 90 62 66 71 74 71 74 74 69 63 56 51 48 47 46 47 49 51 56 61 70
41 42 36 32 24 16 14 16 21 32 45 88 99 98 95 96 96 98 95 98 98 95 95 89 71 74 77 82 81 79 76 75 69 58 52 51 52 47 43 37 33 34 36
45 47 42 38 32 23 17 16 17 22 36 44 64 93 98 97 98 97 99 98 99 93 89 87 78 81 86 90 79 76 81 74 71 67 62 56 52 51 52 55 53 49 48
39 39 42 42 38 33 26 20 17 19 23 31 40 44 56 67 95 96 98 97 94 97 87 86 87 73 82 74 48 58 77 76 80 66 69 71 64 63 66 67 65 63 61
39 34 33 35 38 37 35 30 24 20 19 23 27 29 30 52 66 67 80 89 93 93 99 84 89 59 43 46 38 41 68 88 96 78 76 76 76 76 72 69 67 67 66
46 44 43 40 40 40 40 39 36 31 24 19 18 21 22 28 30 32 38 46 48 49 42 20 36 42 45 55 58 74 81 89 91 89 92 88 82 81 76 70 69 66 65
53 52 50 48 45 44 46 48 47 44 38 30 24 21 18 19 18 20 23 25 27 29 36 24 33 39 82 99 97 99 98 97 98 96 97 93 92 86 79 83 86 79 75
47 49 48 47 45 46 47 49 52 53 51 44 36 29 23 22 21 21 22 20 21 29 47 56 36 82 96 98 95 90 93 96 98 98 97 91 89 90 84 88 96 85 79
46 48 50 54 54 54 51 48 45 48 53 54 50 43 36 29 24 22 21 21 22 28 42 70 88 82 85 82 99 99 98 99 98 92 86 89 89 91 88 90 87 78 70
38 39 41 46 49 56 58 57 53 47 47 54 58 56 51 44 37 30 26 22 22 29 46 94 95 88 95 96 98 98 99 99 81 88 97 96 98 94 84 80 78 78 78
22 27 31 33 37 40 43 46 47 48 52 51 52 58 61 59 53 44 36 29 26 26 42 91 64 91 91 99 95 99 99 98 100 91 98 87 83 77 83 83 77 74 79
12 14 16 17 17 20 24 30 37 40 43 48 52 52 55 61 66 62 53 41 32 30 36 45 55 66 45 70 88 84 71 72 92 77 59 33 55 58 71 77 84 89 89
10 11 12 12 12 15 15 16 19 24 29 34 42 50 55 56 59 68 69 61 49 35 31 35 39 46 51 42 43 39 40 46 52 41 44 59 56 34 47 76 88 88 86
10 9 9 9 9 9 10 10 12 16 16 20 31 44 53 55 59 67 74 71 66 54 41 37 40 44 38 37 38 41 41 44 47 43 44 44 41 35 29 30 69 88 98
10 10 10 10 10 9 9 9 9 9 9 10 12 17 31 52 60 65 67 68 74 69 61 45 46 51 50 46 43 42 43 40 44 46 60 63 57 54 55 51 85 100 95

GFSMA_850_rhum_195.txt.gz
RH
33 31 28 26 30 30 32 28 28 36 43 45 50 57 62 66 59 49 48 49 50 37 33 49 69 77 84 87 85 84 88 88 89 91 92 92 88 84 73 57 69 76 73
27 26 25 26 18 34 47 50 44 39 33 47 43 44 51 58 62 61 56 54 53 36 24 25 35 45 56 65 72 78 82 84 85 87 91 93 92 87 86 88 82 68 59
31 27 25 23 20 30 44 58 54 60 49 51 55 48 43 49 55 61 62 62 66 62 36 31 27 29 36 41 44 48 59 70 76 79 82 88 92 94 90 90 92 94 89
37 33 26 25 23 17 60 71 57 56 57 60 62 62 60 56 58 60 61 65 64 59 63 39 35 34 32 32 36 43 49 53 56 57 63 76 87 95 96 96 98 98 99
38 38 28 27 32 16 51 76 78 81 73 79 77 70 69 71 65 62 66 65 62 59 45 70 46 36 42 42 39 37 38 42 45 48 48 48 63 76 79 88 89 94 98
41 42 32 28 26 27 51 77 86 89 87 89 86 78 81 81 64 58 75 78 71 59 64 60 63 65 51 51 52 51 48 45 41 39 39 44 50 53 56 58 67 81 92
44 42 38 31 30 28 36 60 83 94 91 92 84 77 83 75 84 84 84 84 73 70 78 82 83 80 82 69 63 59 58 58 57 55 51 46 45 47 51 57 60 64 66
47 42 41 35 29 24 31 55 68 92 94 96 95 82 72 80 84 82 86 84 88 85 86 75 71 71 66 67 71 59 59 58 59 60 61 62 60 58 53 49 49 50 51
45 47 41 34 29 26 22 41 62 77 96 94 94 98 76 64 72 76 86 84 85 84 86 88 75 69 62 59 59 57 51 54 60 63 64 65 66 66 67 67 76 69 69
39 46 43 35 32 26 24 24 46 63 88 94 98 100 98 94 74 65 75 84 85 79 79 84 83 84 76 64 60 52 49 47 46 46 50 56 62 66 70 79 80 86 86
42 42 41 36 34 31 26 21 23 41 83 74 98 99 96 91 83 82 75 67 72 73 76 75 80 80 84 83 71 73 48 46 46 45 43 43 43 53 80 96 96 95 91
54 45 40 39 37 35 32 26 24 40 78 87 89 90 98 96 87 88 84 85 85 74 73 74 75 80 84 91 93 89 69 57 49 45 44 45 44 48 84 96 97 98 98
74 58 41 40 39 38 35 31 28 26 35 66 85 94 89 93 96 97 95 92 93 83 74 75 76 80 84 88 94 99 96 81 65 58 54 52 52 52 45 54 76 94 74
49 47 44 42 39 39 39 37 34 32 32 41 84 96 94 91 89 90 93 96 94 86 75 66 72 75 81 95 98 92 87 88 71 58 28 51 58 54 53 51 50 53 53
45 46 47 46 43 40 38 38 38 38 40 45 43 45 55 68 79 92 90 97 95 90 79 60 68 72 91 92 76 62 37 26 34 30 28 29 55 64 56 59 60 59 61
48 49 50 51 50 49 47 44 42 43 45 46 53 63 70 74 79 85 85 95 94 93 91 72 60 65 71 61 44 48 71 88 82 92 84 71 60 72 67 65 70 69 68
51 50 51 51 51 50 49 47 44 44 44 46 50 52 51 57 54 68 76 81 89 90 87 70 67 58 50 49 54 77 50 69 76 92 96 98 98 96 83 79 80 81 77
40 42 43 44 47 48 50 50 50 50 50 48 47 51 52 55 54 47 50 52 56 63 74 58 42 40 58 72 78 56 47 44 57 87 97 88 93 98 97 95 94 88 84
32 36 38 39 41 43 47 53 55 58 58 57 53 48 46 51 52 50 49 54 57 55 58 52 42 49 63 70 91 86 76 48 50 81 61 68 88 92 93 94 94 93 91
16 17 21 25 29 32 35 39 42 45 48 50 52 52 52 51 56 60 57 54 52 51 48 47 34 45 61 63 82 85 89 93 68 45 42 57 79 88 86 87 91 91 91
10 10 11 12 14 15 17 19 22 24 25 25 29 35 41 46 54 58 66 64 62 62 60 59 52 50 64 83 88 89 83 64 52 41 38 42 81 72 63 81 88 92 94
11 10 10 9 9 10 11 12 13 13 15 18 20 24 29 33 34 41 52 58 65 68 66 73 81 76 61 79 90 90 89 68 69 50 52 35 37 30 25 23 28 57 76
12 11 10 9 8 8 8 8 8 8 8 8 9 11 13 16 22 29 36 43 51 58 63 68 69 64 58 56 88 90 86 71 61 57 55 36 36 36 38 36 28 25 46
29 25 18 14 11 9 9 8 8 8 7 7 7 7 7 7 9 13 23 31 37 45 51 57 60 60 68 66 56 67 77 68 61 46 54 57 43 42 39 38 36 31 25
19 15 13 12 12 10 10 11 11 10 10 9 9 9 9 9 9 10 11 12 14 13 22 38 50 58 67 75 72 61 60 60 66 64 65 71 52 46 41 38 34 33 33
34 25 28 30 21 13 10 11 12 12 12 11 11 11 12 12 12 13 14 14 12 11 19 25 46 62 52 55 73 73 62 60 70 88 62 61 57 57 47 46 45 48 45